Date,TemperatureHighF,TemperatureAvgF,TemperatureLowF,DewpointHighF,DewpointAvgF,DewpointLowF,HumidityHigh,HumidityAvg,HumidityLow,PressureMaxIn,PressureMinIn,WindSpeedMaxMPH,WindSpeedAvgMPH,GustSpeedMaxMPH,PrecipitationSumIn
2013-3-1,32.0,25.7,22.5,24.9,21.4,19.5,89,84,74,30.02,29.94,14,4,19,0.00
2013-3-4,47.0,38.1,17.1,28.3,17.5,8.5,80,44,29,30.22,29.97,18,3,21,0.04
2013-3-5,44.9,42.4,38.5,43.8,40.9,22.7,96,94,51,30.16,29.71,7,1,15,0.20
2013-3-6,43.7,22.1,17.6,42.6,17.8,14.4,96,84,78,30.02,29.70,20,11,40,0.21
2013-3-7,48.6,32.4,20.7,28.5,22.1,17.7,91,69,31,30.33,30.19,6,1,16,0.00
2013-3-8,52.6,41.6,24.5,24.0,18.0,7.5,82,41,26,30.37,30.23,11,1,13,0.00
2013-3-9,56.8,34.2,29.7,31.9,19.6,12.1,72,56,37,30.32,30.27,3,0,8,0.00
2013-3-11,56.9,45.0,42.5,45.8,43.7,30.9,97,96,37,30.28,29.85,14,2,33,1.33
2013-3-12,50.9,45.7,35.8,43.9,30.4,24.1,96,58,41,29.93,29.86,17,5,21,0.34
2013-3-13,46.5,33.7,30.3,24.1,18.3,15.7,58,53,41,30.17,29.93,24,8,30,0.00
2013-3-14,41.7,31.8,16.6,17.4,12.4,6.8,77,46,30,30.36,30.17,21,4,23,0.00
2013-3-15,58.7,40.8,29.8,38.5,28.2,14.8,81,62,40,30.23,30.00,23,6,28,0.00
2013-3-18,57.5,41.8,39.1,42.6,40.3,34.6,100,95,42,30.02,29.88,11,1,15,0.28
2013-3-19,49.9,45.1,38.7,42.6,21.5,17.6,96,39,32,30.03,29.90,16,6,26,0.02
2013-3-20,47.6,35.4,28.4,24.5,10.1,4.2,49,35,27,30.17,29.97,13,2,18,0.02
2013-3-21,43.0,27.0,20.3,13.7,9.5,7.6,61,47,30,30.05,29.90,15,4,22,0.00
2013-3-22,39.1,28.1,16.9,26.6,13.0,7.1,74,54,33,30.12,30.02,9,1,14,0.00
2013-3-25,38.3,25.9,23.8,26.0,19.7,18.6,81,78,61,30.08,29.62,22,10,25,0.01
2013-3-26,29.4,26.4,22.9,22.4,19.5,17.2,84,75,67,30.20,29.84,18,7,24,0.01
2013-3-27,40.7,34.4,24.3,22.9,19.2,14.3,76,54,43,30.36,30.20,15,4,21,0.00
2013-3-28,45.0,36.6,26.0,19.1,15.1,10.6,69,43,25,30.40,30.26,16,5,22,0.00
2013-3-29,45.6,33.1,23.6,33.4,23.4,15.4,92,70,34,30.45,30.26,15,1,17,0.11